075  
ASUS43 KLMK 170410  
RWRKY  
KENTUCKY REGIONAL WEATHER ROUNDUP  
NATIONAL WEATHER SERVICE LOUISVILLE KY  
1200 AM EDT WED JUL 17 2019  
 
NOTE "FAIR" INDICATES FEW OR NO CLOUDS BELOW 12,000 FEET  
WITH NO SIGNIFICANT WEATHER AND/OR S TO VISIBILITY
.  
 
KYZ001>023-026-027-061>063-070>075-170500-  
WESTERN AND SOUTH CENTRAL KENTUCKY  
 
CITY SKY/WX TMP DP RH WIND PRES REMARKS
 
PADUCAH CLOUDY 76 73 91 S5 29.95S  
HENDERSON MOCLDY 75 72 90 S8 29.95S  
OWENSBORO CLOUDY 76 73 91 S8 29.96S  
HOPKINSVILLE MOCLDY 75 75 100 S6 29.99F  
BOWLING GREEN LGT RAIN 76 71 85 SE5 30.01F  
GLASGOW CLOUDY 75 70 86 S6 30.02F  

 
 
KYZ024-025-028>034-038-045-046-053-170500-  
NORTH CENTRAL KENTUCKY  
 
CITY SKY/WX TMP DP RH WIND PRES REMARKS
 
LOUISVILLE/SDF MOCLDY 76 70 82 S13 29.96F  
LOUISVILLE/LOU FAIR 76 70 82 S8 29.97F  
FORT KNOX N/A 74 72 95 S8 29.99F  

 
 
KYZ035>037-039>044-047>052-055>060-089>105-170500-  
NORTHEAST KENTUCKY  
 
CITY SKY/WX TMP DP RH WIND PRES REMARKS
 
LEXINGTON FAIR 78 67 68 SW12 30.03R  
COVINGTON CLOUDY 73 70 90 S8 29.97S  
FRANKFORT FAIR 77 71 82 SW15 30.00S  

 
 
KYZ054-064>069-076>088-106>120-170500-  
SOUTHEAST KENTUCKY  
 
CITY SKY/WX TMP DP RH WIND PRES REMARKS
 
JACKSON FAIR 78 69 73 VRB3 30.07S  
LONDON FAIR 76 71 85 S6 30.08F  
SOMERSET LGT RAIN 73 68 83 CALM 30.08S  
MIDDLESBORO FAIR 72 72 100 CALM 30.10F  
MONTICELLO CLOUDY 76 71 85 W14 30.08S  

 
 
 
 
CLICK HERE TO GO TO PREVIOUS BULLETINS.

The Nexlab KY Page Main Text Page